Change the Weather History Date:

Thursday, October 25, 2012

  Actual Average Record
Temperature  
Mean Temperature 39 °F 50 °F  
Max Temperature 47 °F 61 °F 87 °F (1940)
Min Temperature 30 °F 39 °F 16 °F (1887)
Degree Days  
Heating Degree Days 26 15  
Month to date heating degree days 292 280  
Since 1 July heating degree days 384 383  
Cooling Degree Days 0 0  
Month to date cooling degree days 2 12  
Year to date cooling degree days 1649 1109  
Moisture  
Dew Point 35 °F    
Average Humidity 78    
Maximum Humidity 92    
Minimum Humidity 64    
Precipitation  
Precipitation 0.49 in 0.07 in 1.47 in (1997)
Month to date precipitation 2.07 1.79  
Year to date precipitation 20.38 27.58  
Snow  
Snow 0.00 in 0.00 in - ()
Month to date snowfall 0.0 0.2  
Since 1 July snowfall 0.0 0.2  
Snow Depth 0.00 in    
Sea Level Pressure  
Sea Level Pressure 29.98 in    
Wind  
Wind Speed 19 mph (NNW)    
Max Wind Speed 32 mph    
Max Gust Speed 43 mph    
Visibility 8 miles    
Events Rain , Thunderstorm    
T = Trace of Precipitation, MM = Missing Value Source: NWS Daily Summary

Daily Weather History Graph

Daily Weather History Graph

Search for Another Location

Airport or City:

Trip Planner

Search our weather history database for the weather conditions in past years. The results will help you decide how hot, cold, wet, or windy it might be!

Date:

Astronomy

Oct. 25, 2012 Rise Set
Actual Time 7:47 AM CDT 6:27 PM CDT
Civil Twilight 7:19 AM CDT 6:55 PM CDT
Nautical Twilight 6:46 AM CDT 7:27 PM CDT
Astronomical Twilight 6:14 AM CDT 7:59 PM CDT
Moon 4:15 PM CDT (10/25) 3:42 AM CDT (10/25)
Length of Visible Light 11h 36m
Length of Day
10h 39m
Waxing Gibbous, 84% of the Moon is Illuminated
Oct 25
Waxing Gibbous
Oct 29
Full
Nov 6
Last Quarter
Nov 13
New
Nov 20
First Quarter

Hourly Weather History & Observations

Time (CDT) Temp. Windchill Dew Point Humidity Pressure Visibility Wind Dir Wind Speed Gust Speed Precip Events Conditions
12:52 AM 46.9 °F - 45.0 °F 93% 29.71 in 6.0 mi North 11.5 mph - 0.00 in   Overcast
1:52 AM 45.0 °F 37.4 °F 42.1 °F 90% 29.68 in 2.0 mi North 18.4 mph 40.3 mph 0.00 in Rain Light Rain
2:01 AM 44.6 °F 36.9 °F 42.8 °F 93% 29.72 in 3.0 mi North 18.4 mph 28.8 mph N/A   Overcast
2:06 AM 44.6 °F 36.6 °F 42.8 °F 93% 29.71 in 5.0 mi NNW 19.6 mph 26.5 mph 0.02 in Rain , Thunderstorm Light Thunderstorms and Rain
2:38 AM 44.6 °F 35.7 °F 41.0 °F 87% 29.74 in 4.0 mi NNW 24.2 mph 32.2 mph 0.06 in Rain , Thunderstorm Light Thunderstorms and Rain
2:52 AM 44.1 °F 35.7 °F 41.0 °F 89% 29.73 in 2.0 mi NNE 20.7 mph 32.2 mph 0.10 in Rain , Thunderstorm Thunderstorms and Rain
3:10 AM 44.6 °F 39.2 °F 42.8 °F 93% 29.68 in 3.0 mi NNW 10.4 mph 19.6 mph 0.20 in Rain , Thunderstorm Thunderstorms and Rain
3:29 AM 44.6 °F 37.4 °F 42.8 °F 93% 29.75 in 10.0 mi NNW 16.1 mph 21.9 mph 0.22 in Rain , Thunderstorm Light Thunderstorms and Rain
3:40 AM 42.8 °F 34.5 °F 42.8 °F 100% 29.74 in 10.0 mi NNW 18.4 mph 23.0 mph 0.22 in   Overcast
3:52 AM 43.0 °F 35.1 °F 42.1 °F 97% 29.74 in 10.0 mi NNW 17.3 mph - 0.22 in   Overcast
4:00 AM 42.8 °F 33.8 °F 42.8 °F 100% 29.76 in 10.0 mi NNW 21.9 mph 28.8 mph 0.00 in Rain , Thunderstorm Light Thunderstorms and Rain
4:37 AM 42.8 °F 33.1 °F 39.2 °F 87% 29.76 in 8.0 mi NNW 25.3 mph 33.4 mph 0.03 in Rain Light Rain
4:52 AM 41.0 °F 31.1 °F 37.9 °F 89% 29.78 in 3.0 mi NNW 23.0 mph 34.5 mph 0.08 in Rain Heavy Rain
5:52 AM 41.0 °F 31.6 °F 37.9 °F 89% 29.81 in 8.0 mi NNW 20.7 mph 29.9 mph 0.07 in Rain Light Rain
6:52 AM 39.2 °F 29.0 °F 37.4 °F 93% 29.83 in 10.0 mi North 21.9 mph 31.1 mph N/A Rain Light Rain
7:35 AM 39.2 °F 28.5 °F 37.4 °F 93% 29.86 in 3.0 mi NNW 24.2 mph 33.4 mph 0.00 in Rain Light Rain
7:52 AM 39.2 °F 28.7 °F 37.4 °F 93% 29.86 in 3.0 mi NW 23.0 mph 33.4 mph N/A Rain Light Rain
8:52 AM 37.9 °F 26.8 °F 34.0 °F 86% 29.94 in 6.0 mi NNW 24.2 mph 31.1 mph 0.00 in   Overcast
9:52 AM 37.0 °F 25.9 °F 34.0 °F 89% 29.99 in 6.0 mi NNW 23.0 mph 33.4 mph N/A   Overcast
10:52 AM 37.9 °F 27.1 °F 34.0 °F 86% 30.03 in 6.0 mi NNW 23.0 mph 33.4 mph 0.00 in Rain Light Rain
10:59 AM 37.4 °F 25.9 °F 33.8 °F 87% 30.02 in 6.0 mi NNW 25.3 mph 34.5 mph 0.00 in Rain Light Rain
11:52 AM 37.9 °F 26.3 °F 33.1 °F 83% 30.06 in 10.0 mi NNW 26.5 mph 35.7 mph 0.00 in   Overcast
12:52 PM 39.0 °F 28.5 °F 32.0 °F 76% 30.10 in 10.0 mi NNW 23.0 mph 39.1 mph N/A   Overcast
1:52 PM 41.0 °F 31.9 °F 32.0 °F 70% 30.10 in 10.0 mi NNW 19.6 mph 31.1 mph N/A   Overcast
2:52 PM 39.2 °F 29.6 °F 30.2 °F 70% 30.11 in 10.0 mi NW 19.6 mph 34.5 mph N/A   Overcast
3:52 PM 39.0 °F 29.3 °F 30.0 °F 70% 30.17 in 10.0 mi NW 19.6 mph 31.1 mph N/A   Overcast
4:52 PM 39.0 °F 29.0 °F 28.9 °F 67% 30.20 in 10.0 mi NNW 20.7 mph 26.5 mph N/A   Overcast
5:52 PM 37.9 °F 28.5 °F 28.9 °F 70% 30.25 in 10.0 mi NNW 17.3 mph - N/A   Overcast
6:52 PM 37.9 °F 28.9 °F 28.0 °F 68% 30.28 in 10.0 mi NNW 16.1 mph 26.5 mph N/A   Overcast
7:52 PM 37.0 °F 27.4 °F 27.0 °F 67% 30.32 in 10.0 mi NNW 17.3 mph 27.6 mph N/A   Overcast
8:52 PM 37.0 °F 27.0 °F 26.1 °F 65% 30.34 in 10.0 mi NNW 18.4 mph 31.1 mph N/A   Overcast
9:52 PM 37.0 °F 28.5 °F 27.0 °F 67% 30.36 in 10.0 mi NNW 13.8 mph 24.2 mph N/A   Overcast
10:17 PM 37.4 °F 27.8 °F 26.6 °F 65% 30.34 in 10.0 mi NNW 17.3 mph 26.5 mph N/A   Overcast
10:52 PM 37.0 °F 29.3 °F 26.1 °F 65% 30.38 in 10.0 mi NNW 11.5 mph - N/A   Overcast
11:52 PM 32.0 °F 25.6 °F 24.8 °F 75% 30.34 in 10.0 mi NW 6.9 mph - N/A   Clear